Alabaster, AL

8:03 PM CDT on October 14, 2019 (GMT -0500)
Shelby County

Weather History for KEET - August, 2019

Change the Weather History Date:

Friday, August 23, 2019

  Actual Average Record
Temperature  
Mean Temperature 83 °F 80 °F  
Max Temperature 93 °F 90 °F 101 °F (2007)
Min Temperature 73 °F 70 °F 54 °F (1956)
Cooling Degree Days 18 15  
Month to date cooling degree days 428 357  
Year to date cooling degree days 1717 1487  
Since 1 June cooling degree days 1320 1218  
Growing Degree Days 32 (Base 50)    
Moisture  
Dew Point 70 °F    
Average Humidity 69    
Maximum Humidity 93    
Minimum Humidity 44    
Precipitation  
Precipitation T in 0.16 in 1.89 in (2008)
Month to date precipitation 0.79 3.57  
Year to date precipitation 32.07 36.89  
Sea Level Pressure  
Sea Level Pressure 30.00 in    
Wind  
Wind Speed 2 mph (WSW)    
Max Wind Speed 17 mph    
Max Gust Speed 24 mph    
Visibility 10 miles    
Events Thunderstorm    
T = Trace of Precipitation, MM = Missing Value Source: NWS Daily Summary

Daily Weather History Graph

Daily Weather History Graph

Search for Another Location

Airport or City:

Astronomy

Aug. 23, 2019 Rise Set
Actual Time 6:15 AM CDT 7:23 PM CDT
Civil Twilight 5:49 AM CDT 7:49 PM CDT
Nautical Twilight 5:19 AM CDT 8:19 PM CDT
Astronomical Twilight 4:47 AM CDT 8:51 PM CDT
Moon No Moon Rise 1:28 PM CDT (8/23)
Length of Visible Light 13h 59m
Length of Day
13h 08m
Waning Gibbous, 49% of the Moon is Illuminated
Aug 23
Waning Gibbous
Aug 30
New
Sep 5
First Quarter
Sep 13
Full
Sep 21
Last Quarter

Hourly Weather History & Observations

Time (CDT) Temp. Heat Index Dew Point Humidity Pressure Visibility Wind Dir Wind Speed Gust Speed Precip Events Conditions
12:53 AM 77.0 °F - 72.0 °F 84% 30.01 in 10.0 mi South 3.5 mph - N/A   Clear
1:53 AM 77.0 °F - 72.0 °F 84% 29.99 in 10.0 mi South 3.5 mph - N/A   Clear
2:53 AM 75.0 °F - 72.0 °F 90% 29.99 in 10.0 mi Calm Calm - N/A   Clear
3:53 AM 73.9 °F - 72.0 °F 93% 29.99 in 10.0 mi Calm Calm - N/A   Clear
5:53 AM 73.9 °F - 72.0 °F 93% 30.01 in 10.0 mi Calm Calm - N/A   Clear
6:53 AM 73.9 °F - 72.0 °F 93% 30.04 in 10.0 mi Calm Calm - N/A   Clear
8:53 AM 81.0 °F 85.8 °F 73.0 °F 77% 30.04 in 10.0 mi Calm Calm - N/A   Clear
9:53 AM 84.0 °F 90.2 °F 73.0 °F 69% 30.04 in 10.0 mi Variable 3.5 mph - N/A   Clear
10:53 AM 84.9 °F 90.7 °F 72.0 °F 65% 30.04 in 10.0 mi Variable 3.5 mph - N/A   Overcast
11:53 AM 90.0 °F 95.4 °F 70.0 °F 52% 30.00 in 10.0 mi SW 8.1 mph - 0.00 in   Partly Cloudy
12:53 PM 91.0 °F 94.3 °F 66.9 °F 45% 29.98 in 10.0 mi Calm Calm - N/A   Partly Cloudy
1:01 PM 91.9 °F 95.4 °F 66.9 °F 44% 30.00 in 10.0 mi SSW 9.2 mph - N/A Thunderstorm Partly Cloudy
1:16 PM 91.9 °F 95.4 °F 66.9 °F 44% 30.00 in 10.0 mi Calm Calm - N/A   Partly Cloudy
1:53 PM 90.0 °F 92.4 °F 66.0 °F 45% 29.97 in 10.0 mi Calm Calm - N/A   Mostly Cloudy
2:23 PM 87.1 °F 92.8 °F 71.1 °F 59% 30.00 in 10.0 mi Variable 3.5 mph - N/A Thunderstorm Overcast
2:53 PM 84.9 °F 90.1 °F 71.1 °F 63% 29.97 in 10.0 mi NW 3.5 mph - 0.00 in Thunderstorm Mostly Cloudy
3:36 PM 80.1 °F 83.6 °F 71.1 °F 74% 30.02 in 10.0 mi North 9.2 mph 19.6 mph N/A Thunderstorm Mostly Cloudy
3:53 PM 80.1 °F 82.7 °F 68.0 °F 67% 29.98 in 10.0 mi North 12.7 mph 18.4 mph N/A   Partly Cloudy
4:53 PM 84.0 °F 86.5 °F 66.9 °F 56% 29.96 in 10.0 mi Variable 4.6 mph - N/A   Clear
5:53 PM 87.1 °F 90.6 °F 68.0 °F 53% 29.98 in 10.0 mi NNE 5.8 mph - N/A   Clear
6:53 PM 84.9 °F 89.4 °F 70.0 °F 61% 29.99 in 10.0 mi Variable 3.5 mph - N/A   Clear
7:53 PM 82.0 °F 86.3 °F 71.1 °F 69% 29.98 in 10.0 mi Calm Calm - N/A   Clear
9:53 PM 78.1 °F - 72.0 °F 81% 29.99 in 10.0 mi Calm Calm - N/A   Clear
10:53 PM 77.0 °F - 71.1 °F 82% 30.01 in 10.0 mi Calm Calm - N/A   Clear
11:53 PM 75.9 °F - 71.1 °F 85% 30.00 in 10.0 mi South 3.5 mph - N/A   Clear